Location: Newark
(34.6283°N, 36.0776°E)
Time: 15:24:54
(UTC+00:00)

A-11 Canister half - Pass Details

Date: 22 September 2019
Orbit: 1527 x 1682 km, 47.3° (Epoch: 13 October)

Event Time Altitude Azimuth Distance (km) Brightness Sun altitude
Rises 10:00:40 0° 291° (WNW) 4,861 11.6 54.9°
Reaches altitude 10° 10:05:12 10° 273° (W) 3,895 11.4 54.7°
Maximum altitude 10:11:04 17° 237° (WSW) 3,352 11.5 54.3°
Drops below altitude 10° 10:17:00 10° 200° (SSW) 3,928 12.0 53.9°
Sets 10:21:40 0° 182° (S) 4,918 12.2 53.5°
